FW1396 Weather Reports


Display with metric or nautical units.
time (UTC)temp
F
wind
direction
speed
MPH
gust
MPH
rain 1hr
in
rain 24hr
in
rain mn
in
humidity
%
barometer
mb
20260905145003 86 223 2.0 4.0 0.00 0.00 0.00 74 998.3
20260905144503 85 214 2.0 3.0 0.00 0.00 0.00 76 998.3
20260905144003 84 200 1.0 3.0 0.00 0.00 0.00 77 998.3
20260905143503 83 189 1.0 4.0 0.00 0.00 0.00 78 998.3
20260905143001 83 182 3.0 4.0 0.00 0.00 0.00 79 998.4
20260905142502 82 243 2.0 3.0 0.00 0.00 0.00 80 998.4
20260905142002 81 243 2.0 3.0 0.00 0.00 0.00 81 998.4
20260905141735 81 243 2.0 3.0 0.00 0.00 0.00 83 998.5
20260905141002 80 243 1.0 3.0 0.00 0.00 0.00 84 998.5
20260905140502 80 243 2.0 3.0 0.00 0.00 0.00 85 998.5
20260905140000 78 240 1.0 3.0 0.00 0.00 0.00 90 998.4
20260905135501 78 240 2.0 3.0 0.00 0.00 0.00 90 998.5
20260905135000 77 241 0.0 0.0 0.00 0.00 0.00 90 998.6
20260905134500 77 241 0.0 0.0 0.00 0.00 0.00 90 998.6
20260905134229 0 0.0 0.0 0.00 0.00 0.00 998.4
20260905133457 0 0.0 0.0 0.00 0.00 0.00 998.5
20260905132956 0 0.0 0.0 0.00 0.00 0.00 998.5
20260905132455 0 0.0 0.0 0.00 0.00 0.00 998.4
20260905132224 0 0.0 0.0 0.00 0.00 0.00 998.4
20260905131455 0 0.0 0.0 0.00 0.00 0.00 998.5
20260905130951 0 0.0 0.0 0.00 0.00 0.00 998.5
20260905130450 73 158 0.0 0.0 0.00 0.00 0.00 96 998.4
20260905130220 73 158 0.0 0.0 0.00 0.00 0.00 96 998.4
20260905125721 73 158 0.0 1.0 0.00 0.00 0.00 96 998.4
20260905124949 73 158 0.0 1.0 0.00 0.00 0.00 96 998.3
20260905124449 0 0.0 0.0 0.00 0.00 0.00 998.3
20260905123947 0 158 0.0 0.0 0.00 0.00 0.00 998.3
20260905123718 72 158 0.0 0.0 0.00 0.00 0.00 95 998.2
20260905122946 72 158 0.0 0.0 0.00 0.00 0.00 95 998.2
20260905122718 72 158 0.0 0.0 0.00 0.00 0.00 95 998.2
20260905121945 72 158 0.0 0.0 0.00 0.00 0.00 95 998.1
20260905121446 72 158 0.0 0.0 0.00 0.00 0.00 95 998.1
20260905121218 72 158 0.0 0.0 0.00 0.00 0.00 95 998.0
20260905120445 72 158 0.0 0.0 0.00 0.00 0.00 95 998.0
20260905115946 72 158 0.0 1.0 0.00 0.00 0.00 95 998.1
20260905115445 72 158 0.0 1.0 0.00 0.00 0.00 95 997.9
20260905115217 72 158 0.0 2.0 0.00 0.00 0.00 94 997.8
20260905114444 72 158 1.0 2.0 0.00 0.00 0.00 94 997.9
20260905113943 72 161 1.0 2.0 0.00 0.00 0.00 94 997.9
20260905113716 72 161 0.0 0.0 0.00 0.00 0.00 94 997.8
20260905113214 0 0.0 0.0 0.00 0.00 0.00 997.8
20260905112443 0 0.0 0.0 0.00 0.00 0.00 997.8
20260905111941 0 0.0 0.0 0.00 0.00 0.00 997.7
20260905111711 0 0.0 0.0 0.00 0.00 0.00 997.6
20260905110940 0 0.0 0.0 0.00 0.00 0.00 997.6
20260905110438 0 0.0 0.0 0.00 0.00 0.00 997.6
20260905105937 0 0.0 0.0 0.00 0.00 0.00 997.6
20260905105436 0 0.0 0.0 0.00 0.00 0.00 997.6
20260905104935 0 0.0 0.0 0.00 0.00 0.00 997.7
20260905104434 0 0.0 0.0 0.00 0.00 0.00 997.7
20260905104203 0 0.0 0.0 0.00 0.00 0.00 997.7
20260905103433 73 7 0.0 0.0 0.00 0.00 0.00 94 997.6
20260905103203 73 7 0.0 0.0 0.00 0.00 0.00 94 997.7
20260905101931 73 7 0.0 0.0 0.00 0.00 0.00 94 997.7
20260905101431 73 7 0.0 0.0 0.00 0.00 0.00 93 997.8
20260905101200 73 7 0.0 0.0 0.00 0.00 0.00 93 997.8
20260905095430 73 7 0.0 0.0 0.00 0.00 0.00 93 997.7
20260905094931 73 7 0.0 0.0 0.00 0.00 0.00 93 997.7
20260905094428 73 7 0.0 0.0 0.00 0.00 0.00 93 997.6
20260905093930 73 7 0.0 0.0 0.00 0.00 0.00 93 997.6
20260905093429 73 7 0.0 0.0 0.00 0.00 0.00 93 997.5
20260905092928 73 7 0.0 0.0 0.00 0.00 0.00 93 997.5
20260905092427 73 7 0.0 0.0 0.00 0.00 0.00 93 997.4
20260905091927 73 7 0.0 0.0 0.00 0.00 0.00 93 997.5
20260905091426 73 7 0.0 0.0 0.00 0.00 0.00 93 997.5
20260905090927 74 7 0.0 0.0 0.00 0.00 0.00 93 997.4
20260905090427 0 7 0.0 0.0 0.00 0.00 0.00 997.4
20260905085926 0 7 0.0 0.0 0.00 0.00 0.00 997.5
20260905085425 0 7 0.0 0.0 0.00 0.00 0.00 997.5
20260905084925 0 0.0 0.0 0.00 0.00 0.00 997.4
20260905084423 0 0.0 0.0 0.00 0.00 0.00 997.4
20260905084153 0 0.0 0.0 0.00 0.00 0.00 997.4
20260905083421 0 0.0 0.0 0.00 0.00 0.00 997.5
20260905082920 0 0.0 0.0 0.00 0.00 0.00 997.5
20260905082650 0 0.0 0.0 0.00 0.00 0.00 997.5
20260905081918 0 0.0 0.0 0.00 0.00 0.00 997.5
20260905081649 0 0.0 0.0 0.00 0.00 0.00 997.5
20260905080915 0 0.0 0.0 0.00 0.00 0.00 997.5
20260905080415 0 0.0 0.0 0.00 0.00 0.00 997.5
20260905075913 0 0.0 0.0 0.00 0.00 0.00 997.5
20260905075412 75 7 0.0 0.0 0.00 0.00 0.00 91 997.6
20260905074911 75 7 0.0 0.0 0.00 0.00 0.00 91 997.5
20260905074411 75 7 0.0 0.0 0.00 0.00 0.00 91 997.5
20260905074140 75 7 0.0 0.0 0.00 0.00 0.00 91 997.5
20260905073643 75 7 0.0 0.0 0.00 0.00 0.00 91 997.4
20260905072911 75 7 0.0 0.0 0.00 0.00 0.00 91 997.4
20260905072410 75 7 0.0 0.0 0.00 0.00 0.00 91 997.5
20260905071911 75 7 0.0 0.0 0.00 0.00 0.00 91 997.6
20260905071409 75 7 0.0 0.0 0.00 0.00 0.00 91 997.6
20260905070910 75 7 0.0 0.0 0.00 0.00 0.00 91 997.7
20260905070409 75 7 0.0 0.0 0.00 0.00 0.00 90 997.6
20260905065909 75 7 0.0 0.0 0.00 0.00 0.00 90 997.7
20260905065408 76 7 0.0 0.0 0.00 0.00 0.00 91 997.7
20260905064910 76 7 0.0 0.0 0.00 0.00 0.00 91 997.6
20260905064405 76 7 0.0 0.0 0.00 0.00 0.00 90 997.6
20260905063906 76 7 0.0 0.0 0.00 0.00 0.00 90 997.7
20260905063407 0 0.0 0.0 0.00 0.00 0.00 997.6
20260905063138 0 0.0 0.0 0.00 0.00 0.00 997.6
20260905062405 0 0.0 0.0 0.00 0.00 0.00 997.7
20260905061904 0 0.0 0.0 0.00 0.00 0.00 997.6
20260905061402 0 0.0 0.0 0.00 0.00 0.00 997.7
20260905060901 76 7 0.0 0.0 0.00 0.00 0.00 90 997.7
20260905060400 76 7 0.0 0.0 0.00 0.00 0.00 90 997.6
20260905055859 76 7 0.0 0.0 0.00 0.00 0.00 89 997.7
20260905055359 76 7 0.0 0.0 0.00 0.00 0.00 89 997.6
20260905054900 77 7 0.0 0.0 0.00 0.00 0.00 89 997.6
20260905054401 77 7 0.0 0.0 0.00 0.00 0.00 89 997.7
20260905053858 77 7 0.0 0.0 0.00 0.00 0.00 89 997.6
20260905053631 77 7 0.0 0.0 0.00 0.00 0.00 88 997.7
20260905052900 77 7 0.0 0.0 0.00 0.00 0.00 88 997.7
20260905052359 77 7 0.0 0.0 0.00 0.00 0.00 88 997.7
20260905051859 77 7 0.0 0.0 0.00 0.00 0.00 88 997.7
20260905051359 77 7 0.0 0.0 0.00 0.00 0.00 87 997.7
20260905051129 77 7 0.0 0.0 0.00 0.00 0.00 87 997.6
20260905050358 77 7 0.0 0.0 0.00 0.00 0.00 87 997.7
20260905050128 78 7 0.0 0.0 0.00 0.00 0.00 86 997.6
20260905045358 78 7 0.0 0.0 0.00 0.00 0.00 86 997.6
20260905044857 78 7 0.0 0.0 0.00 0.00 0.00 86 997.6
20260905044358 78 7 0.0 0.0 0.00 0.00 0.00 86 997.7
20260905043856 78 7 0.0 0.0 0.00 0.00 0.00 86 997.6
20260905043357 78 7 0.0 0.0 0.00 0.00 0.00 86 997.7
20260905042856 78 7 0.0 0.0 0.00 0.00 0.00 85 997.7
20260905042626 78 7 0.0 0.0 0.00 0.00 0.00 85 997.7
20260905041355 79 7 0.0 0.0 0.00 0.00 0.00 85 997.7
20260905040856 79 7 0.0 0.0 0.00 0.00 0.00 85 997.7
20260905040355 79 7 0.0 0.0 0.00 0.00 0.00 85 997.8
20260905035856 0 0.0 0.0 0.00 0.00 0.00 997.9
20260905035354 0 0.0 0.0 0.00 0.00 0.00 997.8
20260905034852 0 0.0 0.0 0.00 0.00 0.00 997.8
20260905034351 80 7 0.0 0.0 0.00 0.00 0.00 83 997.9
20260905034122 80 7 0.0 0.0 0.00 0.00 0.00 83 997.8
20260905033352 80 7 0.0 0.0 0.00 0.00 0.00 83 997.8
20260905032847 80 0 0.0 0.0 0.00 0.00 0.00 83 997.6
20260905032350 81 0 0.0 0.0 0.00 0.00 0.00 82 997.7
20260905032119 81 0 0.0 0.0 0.00 0.00 0.00 82 997.6
20260905031348 81 0 0.0 0.0 0.00 0.00 0.00 82 997.6
20260905030847 81 0 0.0 0.0 0.00 0.00 0.00 81 997.6
20260905030348 81 0 0.0 0.0 0.00 0.00 0.00 81 997.7
20260905030119 81 0 0.0 0.0 0.00 0.00 0.00 81 997.6
20260905025347 81 0 0.0 0.0 0.00 0.00 0.00 81 997.6
20260905024848 82 0 0.0 0.0 0.00 0.00 0.00 80 997.6
20260905024348 82 0 0.0 0.0 0.00 0.00 0.00 80 997.5
20260905023348 82 0 0.0 0.0 0.00 0.00 0.00 79 997.5
20260905022850 82 0 0.0 0.0 0.00 0.00 0.00 79 997.5
20260905021846 83 0 0.0 0.0 0.00 0.00 0.00 77 997.3
20260905021612 83 0 0.0 0.0 0.00 0.00 0.00 77 997.3
20260905021116 83 0 0.0 0.0 0.00 0.00 0.00 77 997.3
20260905020343 84 0 0.0 0.0 0.00 0.00 0.00 76 997.3
20260905015344 85 306 0.0 0.0 0.00 0.00 0.00 74 997.2
20260905014843 85 306 0.0 0.0 0.00 0.00 0.00 74 997.1
20260905014343 85 306 0.0 0.0 0.00 0.00 0.00 74 997.0
20260905013842 85 306 0.0 0.0 0.00 0.00 0.00 74 996.9
20260905013614 85 306 0.0 0.0 0.00 0.00 0.00 73 996.8
20260905012843 86 306 0.0 0.0 0.00 0.00 0.00 73 996.8
20260905012343 87 306 0.0 0.0 0.00 0.00 0.00 71 996.8
20260905011842 87 306 0.0 0.0 0.00 0.00 0.00 71 996.7
20260905011614 87 306 0.0 0.0 0.00 0.00 0.00 70 996.6
20260905010841 87 306 0.0 0.0 0.00 0.00 0.00 69 996.6
20260905010611 88 306 0.0 0.0 0.00 0.00 0.00 69 996.5
20260905005842 89 306 0.0 1.0 0.00 0.00 0.00 68 996.4
20260905005344 89 306 0.0 1.0 0.00 0.00 0.00 67 996.4
20260905004842 89 306 0.0 1.0 0.00 0.00 0.00 66 996.3
20260905004341 90 306 0.0 2.0 0.00 0.00 0.00 65 996.3
20260905003842 91 306 1.0 2.0 0.00 0.00 0.00 64 996.4
20260905003340 91 306 1.0 2.0 0.00 0.00 0.00 64 996.4
20260905002842 91 306 0.0 1.0 0.00 0.00 0.00 63 996.2
20260905002338 91 306 0.0 0.0 0.00 0.00 0.00 61 996.4
20260905001840 0 0.0 0.0 0.00 0.00 0.00 996.4
20260905001339 92 306 0.0 1.0 0.00 0.00 0.00 61 996.4
20260905000838 92 306 0.0 2.0 0.00 0.00 0.00 61 996.4
20260905000340 92 306 1.0 3.0 0.00 0.00 0.00 61 996.4
20260904235837 92 168 1.0 3.0 0.00 0.00 0.00 60 996.4
20260904235607 92 204 2.0 3.0 0.00 0.00 0.00 60 996.3
20260904234837 92 204 1.0 3.0 0.00 0.00 0.00 60 996.3
20260904234337 92 243 2.0 3.0 0.00 0.00 0.00 60 996.4
20260904233837 92 243 1.0 2.0 0.00 0.00 0.00 60 996.3
20260904233337 92 243 0.0 4.0 0.00 0.00 0.00 59 996.4
20260904232837 92 243 2.0 4.0 0.00 0.00 0.00 59 996.2
20260904232336 92 221 3.0 4.0 0.00 0.00 0.00 59 996.3
20260904231836 92 200 1.0 5.0 0.00 0.00 0.00 59 996.3
20260904231335 92 200 1.0 5.0 0.00 0.00 0.00 58 996.3
20260904230836 92 223 3.0 5.0 0.00 0.00 0.00 58 996.2
20260904230337 92 230 3.0 4.0 0.00 0.00 0.00 58 996.2
20260904225835 92 230 3.0 9.0 0.00 0.00 0.00 58 996.2
20260904225334 92 250 3.0 10.0 0.00 0.00 0.00 58 996.2
20260904224834 92 219 6.0 10.0 0.00 0.00 0.00 58 996.2
20260904224335 92 204 6.0 10.0 0.00 0.00 0.00 57 996.2
20260904224106 93 226 5.0 10.0 0.00 0.00 0.00 56 996.2
20260904223333 93 210 6.0 12.0 0.00 0.00 0.00 55 996.2
20260904222835 94 216 6.0 12.0 0.00 0.00 0.00 55 996.2
20260904222335 94 257 5.0 10.0 0.00 0.00 0.00 57 996.2
20260904222107 95 257 4.0 9.0 0.00 0.00 0.00 56 996.2
20260904221336 95 230 5.0 12.0 0.00 0.00 0.00 55 996.4
20260904220834 95 169 4.0 12.0 0.00 0.00 0.00 55 996.2
20260904220333 95 185 6.0 13.0 0.00 0.00 0.00 55 996.4
20260904215834 96 216 6.0 13.0 0.00 0.00 0.00 54 996.4
20260904215330 96 254 5.0 17.0 0.00 0.00 0.00 52 996.4
20260904214834 97 257 13.0 17.0 0.00 0.00 0.00 51 996.4
20260904214337 98 207 7.0 11.0 0.00 0.00 0.00 50 996.3
20260904213833 98 212 5.0 7.0 0.00 0.00 0.00 50 996.4
20260904213604 99 200 4.0 6.0 0.00 0.00 0.00 49 996.5
20260904213104 99 158 2.0 5.0 0.00 0.00 0.00 48 996.4
20260904212604 99 223 3.0 9.0 0.00 0.00 0.00 47 996.3
20260904211833 99 161 3.0 9.0 0.00 0.00 0.00 48 996.2
20260904211333 99 113 1.0 6.0 0.00 0.00 0.00 48 996.2
20260904210833 99 109 3.0 6.0 0.00 0.00 0.00 47 996.4
20260904210334 0 0.0 0.0 0.00 0.00 0.00 996.4
20260904205832 0 0.0 0.0 0.00 0.00 0.00 996.5
20260904205330 0 0.0 0.0 0.00 0.00 0.00 996.5
20260904204829 102 224 3.0 7.0 0.00 0.00 0.00 45 996.5
20260904204328 102 224 3.0 7.0 0.00 0.00 0.00 45 996.4
20260904203828 102 71 1.0 5.0 0.00 0.00 0.00 45 996.5
20260904203328 102 154 3.0 10.0 0.00 0.00 0.00 43 996.6
20260904202827 101 111 3.0 11.0 0.00 0.00 0.00 43 996.5
20260904202328 102 247 7.0 11.0 0.00 0.00 0.00 43 996.6
20260904201826 101 209 2.0 3.0 0.00 0.00 0.00 44 996.5
20260904201326 0 0.0 0.0 0.00 0.00 0.00 996.5
20260904200825 0 0.0 0.0 0.00 0.00 0.00 996.7
20260904200325 0 0.0 0.0 0.00 0.00 0.00 996.8
20260904195825 0 0.0 0.0 0.00 0.00 0.00 996.8
20260904195322 101 233 4.0 11.0 0.00 0.00 0.00 45 996.9
20260904194821 101 233 4.0 11.0 0.00 0.00 0.00 45 997.0
20260904194320 101 197 2.0 7.0 0.00 0.00 0.00 45 997.0
20260904193820 100 274 4.0 7.0 0.00 0.00 0.00 45 997.1
20260904193320 0 0.0 0.0 0.00 0.00 0.00 997.3
20260904192819 0 0.0 0.0 0.00 0.00 0.00 997.2
20260904191817 100 237 2.0 4.0 0.00 0.00 0.00 48 997.4
20260904191316 100 237 2.0 4.0 0.00 0.00 0.00 48 997.5
20260904190814 100 100 2.0 4.0 0.00 0.00 0.00 48 997.6
20260904190314 100 230 1.0 5.0 0.00 0.00 0.00 47 997.7
20260904185815 100 258 1.0 7.0 0.00 0.00 0.00 47 997.7
20260904185316 99 254 4.0 7.0 0.00 0.00 0.00 47 997.8
20260904184815 99 245 3.0 4.0 0.00 0.00 0.00 47 997.8
20260904184315 99 330 2.0 5.0 0.00 0.00 0.00 47 997.8
20260904183817 99 327 3.0 5.0 0.00 0.00 0.00 48 997.9
20260904183315 99 264 1.0 3.0 0.00 0.00 0.00 48 998.0
20260904182814 99 264 2.0 3.0 0.00 0.00 0.00 48 998.0
20260904182315 100 262 1.0 3.0 0.00 0.00 0.00 47 998.1
20260904181814 100 262 1.0 3.0 0.00 0.00 0.00 47 998.2
20260904181313 100 262 2.0 4.0 0.00 0.00 0.00 48 998.3
20260904180812 99 212 2.0 4.0 0.00 0.00 0.00 48 998.2
20260904180312 98 227 1.0 4.0 0.00 0.00 0.00 50 998.3
20260904175813 98 94 1.0 5.0 0.00 0.00 0.00 50 998.4
20260904175543 98 62 3.0 5.0 0.00 0.00 0.00 50 998.4
20260904174813 98 248 3.0 5.0 0.00 0.00 0.00 51 998.5
20260904174313 98 221 2.0 4.0 0.00 0.00 0.00 51 998.5
20260904173812 98 221 2.0 5.0 0.00 0.00 0.00 51 998.7
20260904173315 98 193 3.0 5.0 0.00 0.00 0.00 52 998.7
20260904172812 97 87 2.0 5.0 0.00 0.00 0.00 52 998.8
20260904172310 97 257 3.0 5.0 0.00 0.00 0.00 53 998.9
20260904171811 97 251 4.0 6.0 0.00 0.00 0.00 53 999.0
20260904171311 97 238 4.0 6.0 0.00 0.00 0.00 54 999.0
20260904170811 96 257 1.0 4.0 0.00 0.00 0.00 55 999.0
20260904170311 96 257 3.0 7.0 0.00 0.00 0.00 54 999.1
20260904165810 96 261 4.0 7.0 0.00 0.00 0.00 54 999.3
20260904165543 96 252 2.0 9.0 0.00 0.00 0.00 55 999.3
20260904165041 96 185 5.0 11.0 0.00 0.00 0.00 54 999.2
20260904164310 96 250 2.0 11.0 0.00 0.00 0.00 54 999.3
20260904163810 96 231 2.0 9.0 0.00 0.00 0.00 54 999.4
20260904163312 96 226 5.0 9.0 0.00 0.00 0.00 54 999.5
20260904162809 96 244 4.0 7.0 0.00 0.00 0.00 55 999.5
20260904162308 96 269 4.0 6.0 0.00 0.00 0.00 55 999.4
20260904161809 96 103 2.0 4.0 0.00 0.00 0.00 57 999.4
20260904161308 96 161 2.0 4.0 0.00 0.00 0.00 58 999.4
20260904161040 95 97 2.0 7.0 0.00 0.00 0.00 58 999.4
20260904160541 95 224 4.0 7.0 0.00 0.00 0.00 57 999.5
20260904155811 95 195 0.0 0.0 0.00 0.00 0.00 59 999.5
20260904155308 94 0 0.0 0.0 0.00 0.00 0.00 60 999.5
20260904154809 93 141 0.0 0.0 0.00 0.00 0.00 61 999.5
20260904154309 93 213 0.0 0.0 0.00 0.00 0.00 62 999.5
20260904154039 92 213 0.0 0.0 0.00 0.00 0.00 64 999.5
20260904153309 91 213 0.0 0.0 0.00 0.00 0.00 64 999.6
20260904153039 90 220 0.0 0.0 0.00 0.00 0.00 66 999.6
20260904152309 90 175 0.0 0.0 0.00 0.00 0.00 67 999.7
20260904151807 89 175 0.0 0.0 0.00 0.00 0.00 67 999.7
20260904151307 88 159 0.0 0.0 0.00 0.00 0.00 68 999.7
20260904150807 88 231 0.0 0.0 0.00 0.00 0.00 69 999.7
20260904150308 87 237 0.0 0.0 0.00 0.00 0.00 69 999.6
20260904145808 87 237 0.0 0.0 0.00 0.00 0.00 70 999.7
20260904145307 87 216 0.0 0.0 0.00 0.00 0.00 71 999.7